Time,TemperatureF,DewpointF,PressureIn,WindDirection,WindDirectionDegrees,WindSpeedMPH,WindSpeedGustMPH,Humidity,HourlyPrecipIn,Conditions,Clouds,dailyrainin,SoftwareType,DateUTC
2013-02-19 00:01:00,51.0,28.0,29.84,South,190,10.0,22.0,40,0.00,,,0.00,,2013-02-19 08:01:00,
2013-02-19 00:11:00,51.0,28.0,29.84,South,190,10.0,22.0,40,0.00,,,0.00,,2013-02-19 08:11:00,
2013-02-19 00:21:00,50.0,28.0,29.84,SSE,154,10.0,15.0,42,0.00,,,0.00,,2013-02-19 08:21:00,
2013-02-19 00:31:00,50.0,28.0,29.83,South,188,12.0,17.0,43,0.00,,,0.00,,2013-02-19 08:31:00,
2013-02-19 00:41:00,50.0,28.0,29.83,South,188,12.0,17.0,43,0.00,,,0.00,,2013-02-19 08:41:00,
2013-02-19 00:52:00,50.0,29.0,29.83,South,187,16.0,23.0,44,0.00,,,0.00,,2013-02-19 08:52:00,
2013-02-19 01:01:00,50.0,30.0,29.83,South,178,14.0,21.0,46,0.00,,,0.00,,2013-02-19 09:01:00,
2013-02-19 01:11:00,50.0,30.0,29.83,South,178,14.0,21.0,46,0.00,,,0.00,,2013-02-19 09:11:00,
2013-02-19 01:21:00,50.0,30.0,29.83,South,171,14.0,19.0,46,0.00,,,0.00,,2013-02-19 09:21:00,
2013-02-19 01:31:00,50.0,31.0,29.82,SSE,167,15.0,20.0,48,0.00,,,0.00,,2013-02-19 09:31:00,
2013-02-19 01:41:00,50.0,31.0,29.82,SSE,167,15.0,20.0,48,0.00,,,0.00,,2013-02-19 09:41:00,
2013-02-19 01:53:00,49.0,32.0,29.82,SSW,193,16.0,24.0,52,0.00,,,0.00,,2013-02-19 09:53:00,
2013-02-19 02:01:00,48.0,32.0,29.81,South,178,18.0,23.0,53,0.00,,,0.00,,2013-02-19 10:01:00,
2013-02-19 02:11:00,48.0,32.0,29.81,South,178,18.0,23.0,53,0.00,,,0.00,,2013-02-19 10:11:00,
2013-02-19 02:21:00,49.0,31.0,29.80,South,184,17.0,24.0,50,0.00,,,0.00,,2013-02-19 10:21:00,
2013-02-19 02:31:00,49.0,31.0,29.80,South,188,21.0,28.0,49,0.00,,,0.00,,2013-02-19 10:31:00,
2013-02-19 02:41:00,49.0,31.0,29.80,South,188,21.0,28.0,49,0.00,,,0.00,,2013-02-19 10:41:00,
2013-02-19 02:52:00,50.0,32.0,29.78,South,188,21.0,30.0,50,0.00,,,0.00,,2013-02-19 10:52:00,
2013-02-19 03:01:00,50.0,33.0,29.78,SSW,192,24.0,30.0,52,0.00,,,0.00,,2013-02-19 11:01:00,
2013-02-19 03:11:00,50.0,33.0,29.78,SSW,192,24.0,30.0,52,0.00,,,0.00,,2013-02-19 11:11:00,
2013-02-19 03:21:00,48.0,33.0,29.78,SSW,207,23.0,30.0,56,0.00,,,0.00,,2013-02-19 11:21:00,
2013-02-19 03:31:00,48.0,34.0,29.78,SSW,198,24.0,30.0,57,0.00,,,0.00,,2013-02-19 11:31:00,
2013-02-19 03:42:00,48.0,34.0,29.78,SSW,198,24.0,30.0,57,0.00,,,0.00,,2013-02-19 11:42:00,
2013-02-19 03:52:00,46.0,32.0,29.77,SSW,194,22.0,30.0,58,0.00,,,0.00,,2013-02-19 11:52:00,
2013-02-19 04:01:00,46.0,32.0,29.77,South,188,21.0,28.0,58,0.00,,,0.00,,2013-02-19 12:01:00,
2013-02-19 04:12:00,46.0,32.0,29.77,South,188,21.0,28.0,58,0.00,,,0.00,,2013-02-19 12:12:00,
2013-02-19 04:21:00,45.0,32.0,29.76,SSW,192,22.0,28.0,60,0.00,,,0.00,,2013-02-19 12:21:00,
2013-02-19 04:32:00,45.0,32.0,29.76,SSW,194,26.0,31.0,61,0.00,,,0.00,,2013-02-19 12:32:00,
2013-02-19 04:42:00,45.0,32.0,29.76,SSW,194,26.0,31.0,61,0.00,,,0.00,,2013-02-19 12:42:00,
2013-02-19 04:52:00,45.0,33.0,29.75,South,188,24.0,33.0,63,0.00,,,0.00,,2013-02-19 12:52:00,
2013-02-19 05:01:00,44.0,33.0,29.76,South,186,27.0,35.0,64,0.00,,,0.00,,2013-02-19 13:01:00,
2013-02-19 05:11:00,44.0,33.0,29.76,South,186,27.0,35.0,64,0.00,,,0.00,,2013-02-19 13:11:00,
2013-02-19 05:22:00,44.0,33.0,29.76,SSW,202,24.0,34.0,64,0.00,,,0.00,,2013-02-19 13:22:00,
2013-02-19 05:31:00,44.0,33.0,29.76,SSW,196,29.0,36.0,64,0.00,,,0.00,,2013-02-19 13:31:00,
2013-02-19 05:41:00,44.0,33.0,29.76,SSW,196,29.0,36.0,64,0.00,,,0.00,,2013-02-19 13:41:00,
2013-02-19 05:52:00,44.0,32.0,29.77,South,183,25.0,31.0,63,0.00,,,0.00,,2013-02-19 13:52:00,
2013-02-19 06:01:00,44.0,33.0,29.77,SSW,202,24.0,33.0,64,0.00,,,0.00,,2013-02-19 14:01:00,
2013-02-19 06:11:00,44.0,33.0,29.77,SSW,202,24.0,33.0,64,0.00,,,0.00,,2013-02-19 14:11:00,
2013-02-19 06:21:00,45.0,33.0,29.77,South,186,23.0,31.0,62,0.00,,,0.00,,2013-02-19 14:21:00,
2013-02-19 06:32:00,45.0,33.0,29.77,South,187,18.0,29.0,62,0.00,,,0.00,,2013-02-19 14:32:00,
2013-02-19 06:41:00,45.0,33.0,29.77,South,187,18.0,29.0,62,0.00,,,0.00,,2013-02-19 14:41:00,
2013-02-19 06:52:00,46.0,32.0,29.76,SW,219,19.0,28.0,57,0.00,,,0.00,,2013-02-19 14:52:00,
2013-02-19 07:01:00,47.0,32.0,29.76,SSW,211,19.0,26.0,55,0.00,,,0.00,,2013-02-19 15:01:00,
2013-02-19 07:11:00,47.0,32.0,29.76,SSW,211,19.0,26.0,55,0.00,,,0.00,,2013-02-19 15:11:00,
2013-02-19 07:21:00,47.0,31.0,29.76,SW,221,17.0,23.0,54,0.00,,,0.00,,2013-02-19 15:21:00,
2013-02-19 07:31:00,47.0,31.0,29.77,SW,227,21.0,26.0,54,0.00,,,0.00,,2013-02-19 15:31:00,
2013-02-19 07:41:00,47.0,31.0,29.77,SW,227,21.0,26.0,54,0.00,,,0.00,,2013-02-19 15:41:00,
2013-02-19 07:52:00,47.0,31.0,29.77,South,184,17.0,31.0,53,0.00,,,0.00,,2013-02-19 15:52:00,
2013-02-19 08:01:00,47.0,31.0,29.78,South,191,12.0,26.0,53,0.00,,,0.00,,2013-02-19 16:01:00,
2013-02-19 08:11:00,47.0,31.0,29.78,South,191,12.0,26.0,53,0.00,,,0.00,,2013-02-19 16:11:00,
2013-02-19 08:21:00,49.0,31.0,29.78,South,184,15.0,22.0,49,0.00,,,0.00,,2013-02-19 16:21:00,
2013-02-19 08:31:00,50.0,32.0,29.77,South,191,13.0,26.0,49,0.00,,,0.00,,2013-02-19 16:31:00,
2013-02-19 08:41:00,50.0,32.0,29.77,South,191,13.0,26.0,49,0.00,,,0.00,,2013-02-19 16:41:00,
2013-02-19 08:52:00,51.0,30.0,29.77,SW,236,7.0,22.0,45,0.00,,,0.00,,2013-02-19 16:52:00,
2013-02-19 09:01:00,51.0,30.0,29.77,WNW,291,16.0,23.0,44,0.00,,,0.00,,2013-02-19 17:01:00,
2013-02-19 09:11:00,51.0,30.0,29.77,WNW,291,16.0,23.0,44,0.00,,,0.00,,2013-02-19 17:11:00,
2013-02-19 09:21:00,52.0,30.0,29.76,SW,229,19.0,23.0,42,0.00,,,0.00,,2013-02-19 17:21:00,
2013-02-19 09:31:00,51.0,29.0,29.76,WSW,240,18.0,27.0,42,0.00,,,0.00,,2013-02-19 17:31:00,
2013-02-19 09:41:00,51.0,29.0,29.76,WSW,240,18.0,27.0,42,0.00,,,0.00,,2013-02-19 17:41:00,
2013-02-19 09:52:00,51.0,29.0,29.75,SW,230,21.0,25.0,42,0.00,,,0.00,,2013-02-19 17:52:00,
2013-02-19 10:01:00,53.0,28.0,29.75,SW,215,17.0,27.0,38,0.00,,,0.00,,2013-02-19 18:01:00,
2013-02-19 10:11:00,53.0,28.0,29.75,SW,215,17.0,27.0,38,0.00,,,0.00,,2013-02-19 18:11:00,
2013-02-19 10:21:00,55.0,28.0,29.74,SSW,207,15.0,28.0,35,0.00,,,0.00,,2013-02-19 18:21:00,
2013-02-19 10:31:00,56.0,28.0,29.73,SW,226,11.0,23.0,34,0.00,,,0.00,,2013-02-19 18:31:00,
2013-02-19 10:41:00,56.0,27.0,29.73,SW,215,20.0,31.0,33,0.00,,,0.00,,2013-02-19 18:41:00,
2013-02-19 10:52:00,56.0,27.0,29.73,SW,215,20.0,31.0,33,0.00,,,0.00,,2013-02-19 18:52:00,
2013-02-19 11:01:00,57.0,27.0,29.73,SW,225,23.0,32.0,31,0.00,,,0.00,,2013-02-19 19:01:00,
2013-02-19 11:11:00,57.0,27.0,29.73,SW,225,23.0,32.0,31,0.00,,,0.00,,2013-02-19 19:11:00,
2013-02-19 11:21:00,57.0,27.0,29.72,SSW,203,22.0,31.0,31,0.00,,,0.00,,2013-02-19 19:21:00,
2013-02-19 11:31:00,57.0,27.0,29.72,SW,221,19.0,28.0,32,0.00,,,0.00,,2013-02-19 19:31:00,
2013-02-19 11:41:00,57.0,27.0,29.72,SW,221,19.0,28.0,32,0.00,,,0.00,,2013-02-19 19:41:00,
2013-02-19 11:52:00,57.0,27.0,29.71,WSW,254,21.0,31.0,32,0.00,,,0.00,,2013-02-19 19:52:00,
2013-02-19 12:01:00,56.0,27.0,29.70,SW,227,17.0,30.0,32,0.00,,,0.00,,2013-02-19 20:01:00,
2013-02-19 12:11:00,56.0,27.0,29.70,SW,227,17.0,30.0,32,0.00,,,0.00,,2013-02-19 20:11:00,
2013-02-19 12:21:00,55.0,26.0,29.69,SW,235,15.0,31.0,33,0.00,,,0.00,,2013-02-19 20:21:00,
2013-02-19 12:31:00,56.0,26.0,29.69,SSW,211,20.0,31.0,31,0.00,,,0.00,,2013-02-19 20:31:00,
2013-02-19 12:41:00,56.0,26.0,29.69,SSW,211,20.0,31.0,31,0.00,,,0.00,,2013-02-19 20:41:00,
2013-02-19 12:52:00,56.0,26.0,29.68,West,271,19.0,30.0,31,0.00,,,0.00,,2013-02-19 20:52:00,
2013-02-19 13:01:00,57.0,26.0,29.67,WSW,254,16.0,30.0,30,0.00,,,0.00,,2013-02-19 21:01:00,
2013-02-19 13:11:00,57.0,26.0,29.67,WSW,254,16.0,30.0,30,0.00,,,0.00,,2013-02-19 21:11:00,
2013-02-19 13:21:00,56.0,26.0,29.65,WSW,252,23.0,33.0,31,0.00,,,0.00,,2013-02-19 21:21:00,
2013-02-19 13:31:00,56.0,25.0,29.66,WSW,241,23.0,33.0,30,0.00,,,0.00,,2013-02-19 21:31:00,
2013-02-19 13:42:00,56.0,25.0,29.66,WSW,241,23.0,33.0,30,0.00,,,0.00,,2013-02-19 21:42:00,
2013-02-19 13:52:00,55.0,25.0,29.66,WSW,250,17.0,33.0,31,0.00,,,0.00,,2013-02-19 21:52:00,
2013-02-19 14:01:00,55.0,24.0,29.66,SW,228,21.0,30.0,30,0.00,,,0.00,,2013-02-19 22:01:00,
2013-02-19 14:11:00,55.0,24.0,29.66,SW,228,21.0,30.0,30,0.00,,,0.00,,2013-02-19 22:11:00,
2013-02-19 14:21:00,54.0,24.0,29.66,SW,234,19.0,36.0,31,0.00,,,0.00,,2013-02-19 22:21:00,
2013-02-19 14:31:00,53.0,24.0,29.67,WSW,250,19.0,30.0,32,0.00,,,0.00,,2013-02-19 22:31:00,
2013-02-19 14:41:00,53.0,24.0,29.67,WSW,250,19.0,30.0,32,0.00,,,0.00,,2013-02-19 22:41:00,
2013-02-19 14:52:00,53.0,25.0,29.64,West,269,16.0,31.0,34,0.00,,,0.00,,2013-02-19 22:52:00,
2013-02-19 15:01:00,53.0,25.0,29.64,West,269,16.0,31.0,34,0.00,,,0.00,,2013-02-19 23:01:00,
2013-02-19 15:11:00,53.0,25.0,29.64,West,269,16.0,31.0,34,0.00,,,0.00,,2013-02-19 23:11:00,
2013-02-19 15:21:00,53.0,25.0,29.64,West,269,16.0,31.0,34,0.00,,,0.00,,2013-02-19 23:21:00,
2013-02-19 16:01:00,50.0,21.0,29.64,West,274,17.0,25.0,32,0.00,,,0.00,,2013-02-20 00:01:00,
2013-02-19 16:11:00,50.0,21.0,29.64,West,274,17.0,25.0,32,0.00,,,0.00,,2013-02-20 00:11:00,
2013-02-19 16:21:00,49.0,20.0,29.63,WSW,253,15.0,28.0,32,0.00,,,0.00,,2013-02-20 00:21:00,
2013-02-19 16:31:00,49.0,20.0,29.63,West,269,13.0,25.0,32,0.00,,,0.00,,2013-02-20 00:31:00,
2013-02-19 16:41:00,49.0,20.0,29.63,West,269,13.0,25.0,32,0.00,,,0.00,,2013-02-20 00:41:00,
2013-02-19 16:52:00,49.0,19.0,29.62,West,265,16.0,25.0,30,0.00,,,0.00,,2013-02-20 00:52:00,
2013-02-19 17:02:00,49.0,18.0,29.62,WSW,242,13.0,23.0,29,0.00,,,0.00,,2013-02-20 01:02:00,
2013-02-19 17:11:00,49.0,18.0,29.62,WSW,242,13.0,23.0,29,0.00,,,0.00,,2013-02-20 01:11:00,
2013-02-19 17:21:00,48.0,15.0,29.62,WSW,240,16.0,21.0,26,0.00,,,0.00,,2013-02-20 01:21:00,
2013-02-19 17:31:00,48.0,16.0,29.62,SW,234,13.0,20.0,27,0.00,,,0.00,,2013-02-20 01:31:00,
2013-02-19 17:41:00,48.0,16.0,29.62,SW,234,13.0,20.0,27,0.00,,,0.00,,2013-02-20 01:41:00,
2013-02-19 17:52:00,48.0,15.0,29.62,SW,234,16.0,23.0,26,0.00,,,0.00,,2013-02-20 01:52:00,
2013-02-19 18:01:00,47.0,16.0,29.62,WSW,237,9.0,20.0,28,0.00,,,0.00,,2013-02-20 02:01:00,
2013-02-19 18:11:00,47.0,16.0,29.62,WSW,237,9.0,20.0,28,0.00,,,0.00,,2013-02-20 02:11:00,
2013-02-19 18:21:00,47.0,16.0,29.62,WSW,237,9.0,20.0,28,0.00,,,0.00,,2013-02-20 02:21:00,
2013-02-19 18:31:00,47.0,16.0,29.62,WSW,237,9.0,20.0,28,0.00,,,0.00,,2013-02-20 02:31:00,
2013-02-19 18:41:00,47.0,16.0,29.62,WSW,237,9.0,20.0,28,0.00,,,0.00,,2013-02-20 02:41:00,